Regional Weather Roundup
Issued by NWS

Home | Current Version | Previous Version | Text Only | Print | Product List | Glossary On
Versions: 1 2 3 4 5 6 7 8 9 10 11 12 13 14 15 16 17 18 19 20 21 22 23 24 25 26 27 28 29 30 31 32 33 34 35 36 37 38 39 40 41 42 43 44 45 46 47 48 49 50
000
ASUS43 KLMK 272110
RWRKY
KENTUCKY REGIONAL WEATHER ROUNDUP
NATIONAL WEATHER SERVICE LOUISVILLE KY
500 PM EDT FRI MAY 27 2016

NOTE "FAIR" INDICATES FEW OR NO CLOUDS BELOW 12,000 FEET
WITH NO SIGNIFICANT WEATHER AND/OR OBSTRUCTIONS TO VISIBILITY.

KYZ001>023-026-027-061>063-070>075-272200-
WESTERN AND SOUTH CENTRAL KENTUCKY

CITY           SKY/WX    TMP DP  RH WIND       PRES   REMARKS
PADUCAH        PTSUNNY   82  65  56 S14G22    29.88F
HENDERSON      MOSUNNY   84  64  51 S20G28    29.90S
OWENSBORO      MOSUNNY   86  64  47 S20G25    29.93F
HOPKINSVILLE   SUNNY     84  64  50 S13G23    29.94F
BOWLING GREEN  PTSUNNY   86  66  51 S10       29.96F
GLASGOW        MOSUNNY   85  63  48 S6        29.98F
$$

KYZ024-025-028>034-038-045-046-053-272200-
NORTH CENTRAL KENTUCKY

CITY           SKY/WX    TMP DP  RH WIND       PRES   REMARKS
LOUISVILLE/SDF PTSUNNY   87  63  44 S13G22    29.97S
LOUISVILLE/LOU MOSUNNY   86  63  45 S12G21    29.98S
FORT KNOX      MOSUNNY   85  65  52 S14G21    29.97F
$$

KYZ035>037-039>044-047>052-055>060-089>105-272200-
NORTHEAST KENTUCKY

CITY           SKY/WX    TMP DP  RH WIND       PRES   REMARKS
LEXINGTON      CLOUDY    84  65  52 S8        30.02F
COVINGTON      PTSUNNY   84  63  49 SW7       30.00F
FRANKFORT      MOSUNNY   85  65  51 S9        30.00S
$$

KYZ054-064>069-076>088-106>120-272200-
SOUTHEAST KENTUCKY

CITY           SKY/WX    TMP DP  RH WIND       PRES   REMARKS
JACKSON        SUNNY     84  63  49 CALM      30.04F
LONDON         CLOUDY    84  63  49 SE6       30.03F
SOMERSET       CLOUDY    82  64  54 S3        30.03S
MIDDLESBORO    CLOUDY    79  65  62 S13G30    30.07R
MONTICELLO     CLOUDY    82  68  62 VRB6      30.03F
$$





USA.gov is the U.S. government's official web portal to all federal, state and local government web resources and services.